666  
AXUS43 KGID 311302  
MISGRI  
 
GID CWA HOURLY WEATHER ROUNDUP  
NATIONAL WEATHER SERVICE HASTINGS NE  
800 AM CDT THU JUL 31 2014  
 
NOTE: "FAIR" INDICATES FEW OR NO CLOUDS BELOW 12,000 FEET WITH NO  
SIGNIFICANT WEATHER AND/OR OBSTRUCTIONS TO VISIBILITY.  
   
..SOUTH CENTRAL NEBRASKA
 
 
 
CITY SKY/WX TMP DP RH WIND PRES REMARKS  
GRAND ISLAND MOSUNNY 67 55 65 S7 30.12S  
HASTINGS PTSUNNY 65 52 62 SW6 30.12F  
KEARNEY MOSUNNY 63 54 72 S10 30.12F  
ORD SUNNY 62 56 80 S5 30.08S  
YORK MOSUNNY 61 57 88 S5 30.13S  
AURORA MOSUNNY 64 59 85 CALM 30.12S  
LEXINGTON MOSUNNY 62 59 90 CALM 30.13F  
HOLDREGE PTSUNNY 64 58 79 CALM 30.13S  
HEBRON PTSUNNY 58 53 81 CALM 30.13S  
   
..NEBRASKA PANHANDLE
 
 
 
CITY SKY/WX TMP DP RH WIND PRES REMARKS  
CHADRON SUNNY 54 49 83 CALM 30.19S  
ALLIANCE SUNNY 55 52 89 W6 30.20S  
SCOTTSBLUFF SUNNY 58 56 93 NW3 30.22R  
SIDNEY MOSUNNY 59 56 89 W5 30.24S  
   
..WESTERN AND NORTH CENTRAL NEBRASKA
 
 
 
CITY SKY/WX TMP DP RH WIND PRES REMARKS  
VALENTINE SUNNY 60 52 74 NW8 30.10S  
AINSWORTH SUNNY 61 52 71 W6 30.09S  
ONEILL PTSUNNY 64 59 85 SW5 30.08R  
BROKEN BOW SUNNY 62 58 86 CALM 30.10F  
IMPERIAL SUNNY 61 57 87 W6 30.20R  
NORTH PLATTE PTSUNNY 59 57 93 W3 30.15S  
MCCOOK MOSUNNY 61 59 93 W8 30.17S  
   
..EASTERN NEBRASKA
 
 
 
CITY SKY/WX TMP DP RH WIND PRES REMARKS  
NORFOLK MOSUNNY 60 56 86 E3 30.09S  
SO SIOUX CITY SUNNY 59 56 89 SE5 30.09S  
TEKAMAH SUNNY 59 56 89 S3 30.10S  
ALBION MOSUNNY 64 55 73 S3 30.10S  
OMAHA EPPLEY SUNNY 63 57 81 SE8 30.11S  
OFFUTT AFB SUNNY 60 60 100 CALM 30.11R  
MILLARD SUNNY 62 57 83 CALM 30.11R  
LINCOLN SUNNY 61 55 81 CALM 30.13R  
NEBRASKA CITY SUNNY 63 56 77 CALM 30.12S  
BEATRICE MOSUNNY 59 55 89 CALM 30.13R  
FALLS CITY SUNNY 60 56 86 CALM 30.11S FOG  
   
..NORTHERN KANSAS
 
 
 
CITY SKY/WX TMP DP RH WIND PRES REMARKS  
GOODLAND MOSUNNY 59 56 89 W8 30.24R  
HILL CITY SUNNY 59 55 87 W7 30.16S  
NORTON SUNNY 61 55 82 SW6 30.15S  
PHILLIPSBURG SUNNY 61 57 88 CALM 30.14S FOG  
SMITH CENTER SUNNY 61 55 82 E3 30.14R  
HAYS SUNNY 59 54 82 SW3 30.16R  
RUSSELL SUNNY 60 58 92 SW3 30.14R  
CONCORDIA SUNNY 60 56 86 CALM 30.13S  
SALINA SUNNY 60 57 89 CALM 30.14R FOG  
TOPEKA SUNNY 61 58 90 CALM 30.12S  
 
CLICK HERE TO GO TO PREVIOUS BULLETINS.

The Nexlab NE Page
The Nexlab KS Page Main Text Page